Previsão horária em Abaza

Hoje, 11 Abril, Domingo

Tempo Temperatura Precipitação Vento Pressão Humidade
00:00 0°C° 0 mm 1 m/s 733 mmHg 92%
01:00 0°C° 0 mm 1 m/s 733 mmHg 93%
02:00 -1°C° 0 mm 1 m/s 733 mmHg 93%
03:00 -3°C° 0 mm 0 m/s 734 mmHg 94%
04:00 -3°C° 0 mm 0 m/s 734 mmHg 93%
05:00 -3°C° 0 mm 0 m/s 734 mmHg 92%
06:00 -3°C° 0 mm 0 m/s 735 mmHg 92%
07:00 0°C° 0 mm 1 m/s 735 mmHg 82%
08:00 +2°C° 0 mm 1 m/s 735 mmHg 72%
09:00 +3°C° 0 mm 1 m/s 735 mmHg 63%
10:00 +4°C° 0 mm 1 m/s 734 mmHg 59%
11:00 +6°C° 0 mm 1 m/s 734 mmHg 54%
12:00 +7°C° 0 mm 1 m/s 734 mmHg 50%
13:00 +7°C° 0 mm 1 m/s 733 mmHg 49%
14:00 +7°C° 0 mm 2 m/s 733 mmHg 48%
15:00 +7°C° 0 mm 2 m/s 732 mmHg 47%
16:00 +7°C° 0 mm 1 m/s 733 mmHg 56%
17:00 +6°C° 0 mm 1 m/s 733 mmHg 66%
18:00 +3°C° 0 mm 0 m/s 733 mmHg 75%
19:00 +3°C° 0 mm 1 m/s 733 mmHg 78%
20:00 +2°C° 0 mm 1 m/s 733 mmHg 81%
21:00 +1°C° 0 mm 1 m/s 733 mmHg 85%
22:00 0°C° 0 mm 1 m/s 733 mmHg 86%
23:00 0°C° 0 mm 1 m/s 733 mmHg 87%

Amanhã, 12 Abril, Segunda-feira

Tempo Temperatura Precipitação Vento Pressão Humidade
00:00 0°C° 0 mm 1 m/s 732 mmHg 88%
01:00 0°C° 0 mm 1 m/s 732 mmHg 89%
02:00 -1°C° 0 mm 1 m/s 732 mmHg 89%
03:00 -1°C° 0 mm 1 m/s 732 mmHg 90%
04:00 0°C° 0 mm 1 m/s 732 mmHg 88%
05:00 0°C° 0 mm 1 m/s 732 mmHg 86%
06:00 +1°C° 0 mm 1 m/s 732 mmHg 84%
07:00 +3°C° 0 mm 1 m/s 731 mmHg 74%
08:00 +6°C° 0 mm 1 m/s 731 mmHg 65%
09:00 +7°C° 0 mm 0 m/s 731 mmHg 56%
10:00 +10°C° 0 mm 1 m/s 730 mmHg 50%
11:00 +12°C° 0 mm 1 m/s 730 mmHg 45%
12:00 +13°C° 0 mm 1 m/s 729 mmHg 39%
13:00 +13°C° 0 mm 1 m/s 729 mmHg 40%
14:00 +14°C° 0 mm 2 m/s 728 mmHg 41%
15:00 +14°C° 0 mm 2 m/s 728 mmHg 42%
16:00 +13°C° 0 mm 2 m/s 728 mmHg 51%
17:00 +11°C° 0 mm 1 m/s 728 mmHg 60%
18:00 +10°C° 0 mm 1 m/s 728 mmHg 69%
19:00 +9°C° 0 mm 1 m/s 728 mmHg 72%
20:00 +7°C° 0 mm 1 m/s 728 mmHg 75%
21:00 +5°C° 0 mm 2 m/s 728 mmHg 78%
22:00 +5°C° 0 mm 2 m/s 727 mmHg 79%
23:00 +4°C° 0 mm 2 m/s 727 mmHg 79%

Depois de amanhã, 13 Abril, Terça-feira

Tempo Temperatura Precipitação Vento Pressão Humidade
00:00 +4°C° 0 mm 2 m/s 726 mmHg 80%
01:00 +4°C° 0 mm 2 m/s 726 mmHg 80%
02:00 +4°C° 0 mm 2 m/s 726 mmHg 80%
03:00 +4°C° 0 mm 2 m/s 726 mmHg 80%
04:00 +4°C° 0 mm 2 m/s 726 mmHg 79%
05:00 +4°C° 0 mm 2 m/s 726 mmHg 78%
06:00 +4°C° 0 mm 2 m/s 726 mmHg 78%
07:00 +5°C° 0 mm 2 m/s 726 mmHg 73%
08:00 +6°C° 0 mm 2 m/s 726 mmHg 69%
09:00 +7°C° 0 mm 2 m/s 726 mmHg 65%
10:00 +7°C° 0 mm 3 m/s 726 mmHg 65%
11:00 +7°C° 0 mm 3 m/s 726 mmHg 65%
12:00 +6°C° 0 mm 4 m/s 726 mmHg 65%
13:00 +5°C° 0.2 mm 4 m/s 726 mmHg 68%
14:00 +5°C° 0.2 mm 4 m/s 726 mmHg 71%
15:00 +5°C° 0.2 mm 5 m/s 727 mmHg 74%
16:00 +3°C° 0.1 mm 5 m/s 727 mmHg 75%
17:00 +4°C° 0.1 mm 4 m/s 727 mmHg 76%
18:00 +3°C° 0.1 mm 4 m/s 728 mmHg 76%
19:00 +1°C° 0 mm 4 m/s 728 mmHg 79%
20:00 +1°C° 0 mm 3 m/s 729 mmHg 82%
21:00 +1°C° 0 mm 2 m/s 730 mmHg 85%
22:00 +1°C° 0 mm 2 m/s 730 mmHg 86%
23:00 +1°C° 0 mm 2 m/s 730 mmHg 87%

14 Abril, Quarta-feira

Tempo Temperatura Precipitação Vento Pressão Humidade
00:00 +1°C° 0 mm 1 m/s 730 mmHg 87%
01:00 -1°C° 0 mm 2 m/s 730 mmHg 87%
02:00 +1°C° 0 mm 2 m/s 729 mmHg 86%
03:00 +1°C° 0 mm 2 m/s 729 mmHg 85%
04:00 +1°C° 0 mm 2 m/s 729 mmHg 83%
05:00 +1°C° 0 mm 2 m/s 729 mmHg 81%
06:00 +1°C° 0 mm 3 m/s 729 mmHg 79%
07:00 +1°C° 0 mm 3 m/s 729 mmHg 73%
08:00 +2°C° 0 mm 3 m/s 729 mmHg 67%
09:00 +3°C° 0 mm 3 m/s 729 mmHg 61%
10:00 +4°C° 0 mm 3 m/s 728 mmHg 58%
11:00 +5°C° 0 mm 4 m/s 728 mmHg 55%
12:00 +6°C° 0 mm 4 m/s 727 mmHg 52%
13:00 +6°C° 0 mm 4 m/s 727 mmHg 54%
14:00 +6°C° 0 mm 4 m/s 727 mmHg 56%
15:00 +7°C° 0 mm 3 m/s 726 mmHg 59%
16:00 +7°C° 0.1 mm 3 m/s 726 mmHg 64%
17:00 +5°C° 0.1 mm 3 m/s 726 mmHg 70%
18:00 +4°C° 0.1 mm 3 m/s 726 mmHg 76%
19:00 +5°C° 0.2 mm 2 m/s 726 mmHg 81%
20:00 +4°C° 0.2 mm 2 m/s 726 mmHg 85%
21:00 +3°C° 0.2 mm 2 m/s 726 mmHg 90%
22:00 +3°C° 0 mm 2 m/s 726 mmHg 89%
23:00 +4°C° 0 mm 1 m/s 725 mmHg 87%

15 Abril, Quinta-feira

Tempo Temperatura Precipitação Vento Pressão Humidade
00:00 +4°C° 0 mm 1 m/s 725 mmHg 86%
01:00 +4°C° 0.1 mm 1 m/s 725 mmHg 86%
02:00 +4°C° 0.1 mm 1 m/s 724 mmHg 87%
03:00 +4°C° 0.1 mm 1 m/s 724 mmHg 87%
04:00 +4°C° 0.1 mm 1 m/s 724 mmHg 87%
05:00 +4°C° 0.1 mm 1 m/s 724 mmHg 87%
06:00 +4°C° 0.1 mm 1 m/s 724 mmHg 86%
07:00 +5°C° 0.1 mm 1 m/s 723 mmHg 80%
08:00 +6°C° 0.1 mm 1 m/s 723 mmHg 74%
09:00 +6°C° 0.1 mm 2 m/s 723 mmHg 68%
10:00 +8°C° 0 mm 2 m/s 723 mmHg 61%
11:00 +9°C° 0 mm 2 m/s 722 mmHg 54%
12:00 +12°C° 0 mm 2 m/s 722 mmHg 47%
13:00 +13°C° 0 mm 2 m/s 722 mmHg 45%
14:00 +13°C° 0 mm 2 m/s 721 mmHg 44%
15:00 +14°C° 0 mm 2 m/s 721 mmHg 42%
16:00 +13°C° 0 mm 2 m/s 721 mmHg 49%
17:00 +12°C° 0 mm 1 m/s 721 mmHg 55%
18:00 +11°C° 0 mm 1 m/s 721 mmHg 61%
19:00 +10°C° 0 mm 1 m/s 721 mmHg 66%
20:00 +8°C° 0 mm 1 m/s 721 mmHg 71%
21:00 +7°C° 0 mm 1 m/s 721 mmHg 76%
22:00 +7°C° 0 mm 1 m/s 721 mmHg 78%
23:00 +6°C° 0 mm 1 m/s 721 mmHg 80%

16 Abril, Sexta-feira

Tempo Temperatura Precipitação Vento Pressão Humidade
00:00 +6°C° 0 mm 1 m/s 721 mmHg 81%
01:00 +5°C° 0 mm 1 m/s 720 mmHg 82%
02:00 +5°C° 0 mm 1 m/s 720 mmHg 82%
03:00 +5°C° 0 mm 1 m/s 720 mmHg 83%
04:00 +5°C° 0 mm 1 m/s 720 mmHg 81%
05:00 +5°C° 0 mm 1 m/s 720 mmHg 80%
06:00 +5°C° 0 mm 1 m/s 720 mmHg 78%
07:00 +8°C° 0 mm 1 m/s 720 mmHg 69%
08:00 +10°C° 0 mm 1 m/s 719 mmHg 59%
09:00 +13°C° 0 mm 1 m/s 719 mmHg 50%
10:00 +15°C° 0 mm 1 m/s 719 mmHg 45%
11:00 +16°C° 0 mm 1 m/s 718 mmHg 41%
12:00 +19°C° 0 mm 1 m/s 718 mmHg 36%
13:00 +19°C° 0 mm 1 m/s 718 mmHg 35%
14:00 +19°C° 0 mm 2 m/s 718 mmHg 33%
15:00 +19°C° 0 mm 2 m/s 717 mmHg 32%
16:00 +18°C° 0 mm 2 m/s 717 mmHg 38%
17:00 +18°C° 0 mm 1 m/s 717 mmHg 44%
18:00 +16°C° 0 mm 1 m/s 717 mmHg 50%
19:00 +14°C° 0 mm 1 m/s 717 mmHg 54%
20:00 +13°C° 0 mm 1 m/s 717 mmHg 59%
21:00 +11°C° 0 mm 1 m/s 717 mmHg 64%
22:00 +10°C° 0 mm 1 m/s 717 mmHg 67%
23:00 +10°C° 0 mm 1 m/s 717 mmHg 70%
Mostrar mais

Necessitamos do seu Consentimento

A Meteoprog e os seus Fornecedores de Serviços podem armazenar e aceder a dados pessoais como cookies, identificadores do dispositivo ou outras tecnologias semelhantes existentes no seu dispositivo e processar estes dados para personalizar conteúdos e anúncios, assim como funcionalidades nas redes sociais e análise de tráfego.

  • Armazenar e/ou aceder a informações no seu dispositivo

    Os cookies, identificadores do dispositivo ou outras informações podem ser armazenados ou acedidos no seu dispositivo, para os fins acima indicados.

  • Anúncios e conteúdos personalizados, medição de anúncios e conteúdos, dados sobre o público-alvo e desenvolvimento de produtos

    Os anúncios e os conteúdos podem ser personalizados com base num perfil. Podem ser adicionados dados adicionais para uma maior personalização dos anúncios e dos conteúdos. A eficácia dos anúncios e dos conteúdos pode ser medida. Podem ser obtidas informações sobre o público que visualizou os anúncios e os conteúdos. Estes dados podem ser usados para desenvolver ou melhorar sistemas, softwares ou a experiência do utilizador.

Ao clicar em "Eu concordo”, permitirá o uso de cookies, identificadores do dispositivo e web beacons mencionados ou outras tecnologias semelhantes. As configurações do navegador do seu dispositivo podem ser alteradas.

Para certos fins, podem ser invocados interesses legítimos ao invés de consentimento. Pode ler mais informação sobre este assunto na nossa Política de Privacidade e Cookies.